sat.trackr.live / text

‹ back to catalog

STARLINK-11606 [DTC]

NORAD 63559 · 2025-075M

PAYLOAD ACTIVE UNKNOWN

§ Identity

Operator
Country
US
Launch date
2025-04-13
Launch site
AFETR
Launch vehicle
Mass (kg)
RCS (m²)

Purposes: comms

External: N2YO · Heavens-Above · Gunter

§ Orbital elements

Epoch: 2026-05-25T02:57:20.987712Z

Period
91.67 min
Inclination
43.0006°
Eccentricity
0.0002446
Mean motion
15.70891113 rev/d
Perigee alt
354.7 km
Apogee alt
358.0 km
Semi-major
6,734.5 km
B*
1.0090e-3
RAAN
52.7227°
Arg perigee
258.0489°
Mean anomaly
102.0105°
Rev number
6,527

§ Raw data

STARLINK-11606 [DTC]1 63559U 25075M   26145.12315958  .00131381  00000+0  10090-2 0  99972 63559  43.0006  52.7227 0002446 258.0489 102.0105 15.70891113 65275

JSON: /api/v1/satellites/63559 · /tle

For live sub-satellite position, see the globe view (requires WebGL).

§ Visibility from observer

Set your observer location to see the next 7 days of passes ≥ 10°. The values pass through the URL so the page stays shareable.

No JS? Fill the form by hand. The geolocation button needs JavaScript.